COSMOS 2251 DEB, 35284

Orbit data source: Space-Track

COSMOS 2251 DEB, 35284 is space debris in LEO originally from a launch on Wed, 16 Jun 1993 UTC launched from the Plesetsk Missile And Space Complex (PKMTR). The debris from Iridium 33, an American commercial communications satellite, has been tracked extensively since its accidental collision with the defunct Russian satellite Cosmos 2251 in 2009. This event, occurring at high speed in low Earth orbit (LEO), generated thousands of pieces of space debris, significantly increasing the risk of further collisions. The Iridium 33 debris cloud has impacted space traffic management and orbital debris mitigation strategies, making it a subject of ongoing study in space situational awareness.

Loading next visibility...
Identifier
35284, 1993-036AJN
Orbit
LEO
Country
Flag of CISCIS
Related business
Manufacturer
Unknown
Mission
Spacecraft
Bus & Motor
Unknown
Mass
Unknown
Launch date (UTC)
1993-06-16 (32 years ago)
Launch vehicle
Unknown
Launch site
Plesetsk Missile And Space Complex (PKMTR)
Object type
Payload
Rocket body
Debris
Shape & HBR
Unknown shape, 0.1 m
Radar Cross Section
Small (<0.1 m²)

Expand to show TLE details & history
Last TLE update: 3 days ago

TLE from 3 days ago
0 COSMOS 2251 DEB
1 35284U 93036AJN 25297.15658377  .00000639  00000-0  21869-3 0  9997
2 35284  74.0509 355.7157 0015284  88.0658 303.4759 14.38238133648136
Epoch: 2025-10-24T03:45Z
TLE epoch observation values (Epoch: 2025-10-24T03:45:28.837Z)
Latitude
30.11742°
Longitude
-83.96886°
Altitude
761.778 km
Speed
7.48 km/s
True Right ascension
00h 20m 49s
True Declination
29° 58' 06"
Sunlit
Object was in full shadow at epoch
Visualization orbit readout
Latitude
Unknown
Longitude
Unknown
Altitude
Unknown
Speed
Unknown
Apparent Right ascension
Unknown
Apparent Declination
Unknown
Sunlit
N/A
Visualization observer readout
Local Sidereal Time
21:58:51
Azimuth
Unknown
Elevation
Unknown
Doppler factor
Unknown
Orbital elements
Apogee altitude
772.859 km
Perigee altitude
751.033 km
Semi-major axis
7,140.083 km
Eccentricity
0.00153
Inclination
74.0509°
RAAN
355.7157°
Arg. of periapsis
88.0658°
True anomaly
303.32966°
Mean anomaly
303.4759°
Eccentric anomaly
303.40279°
Mean motion
3.5974 °/min
Orbital period
100.07 mins
BSTAR
0.00021869
Loading maneuver chart data...
Computing Atmospheric mass density...

Documentation

Showing up to 5 results
|